• In Netherlands
  • List of Countries
  • For 7 days
  • Water Temperature
  • Satellite Maps
  • Weather Map
  • Weather Widgets
  • user-avatar
    Login

    Hourly Weather Pamporovo

    Today, 29 July, Saturday

    Time Temperature Precipitation Wind Pressure Humidity
    00:00 +9°C° 0 mm 2 mps 626 mmHg 67%
    01:00 +9°C° 0 mm 2 mps 626 mmHg 67%
    02:00 +10°C° 0 mm 2 mps 626 mmHg 66%
    03:00 +9°C° 0 mm 2 mps 626 mmHg 67%
    04:00 +9°C° 0 mm 2 mps 626 mmHg 69%
    05:00 +9°C° 0 mm 2 mps 626 mmHg 71%
    06:00 +12°C° 0 mm 2 mps 627 mmHg 64%
    07:00 +14°C° 0 mm 2 mps 628 mmHg 57%
    08:00 +18°C° 0 mm 1 mps 630 mmHg 50%
    09:00 +18°C° 0 mm 2 mps 630 mmHg 45%
    10:00 +20°C° 0 mm 2 mps 631 mmHg 39%
    11:00 +23°C° 0 mm 2 mps 632 mmHg 34%
    12:00 +23°C° 0 mm 2 mps 632 mmHg 34%
    13:00 +24°C° 0 mm 3 mps 632 mmHg 34%
    14:00 +24°C° 0 mm 3 mps 632 mmHg 34%
    15:00 +24°C° 0 mm 3 mps 632 mmHg 38%
    16:00 +23°C° 0 mm 2 mps 631 mmHg 41%
    17:00 +21°C° 0 mm 2 mps 631 mmHg 45%
    18:00 +19°C° 0 mm 2 mps 630 mmHg 51%
    19:00 +17°C° 0 mm 2 mps 630 mmHg 57%
    20:00 +16°C° 0 mm 1 mps 629 mmHg 62%
    21:00 +15°C° 0 mm 1 mps 629 mmHg 63%
    22:00 +14°C° 0 mm 2 mps 629 mmHg 64%
    23:00 +14°C° 0 mm 2 mps 629 mmHg 65%

    Tomorrow, 30 July, Sunday

    Time Temperature Precipitation Wind Pressure Humidity
    00:00 +13°C° 0 mm 2 mps 629 mmHg 65%
    01:00 +13°C° 0 mm 2 mps 629 mmHg 65%
    02:00 +13°C° 0 mm 2 mps 629 mmHg 65%
    03:00 +12°C° 0 mm 2 mps 629 mmHg 65%
    04:00 +12°C° 0 mm 2 mps 629 mmHg 66%
    05:00 +12°C° 0 mm 2 mps 629 mmHg 66%
    06:00 +14°C° 0 mm 1 mps 630 mmHg 60%
    07:00 +16°C° 0 mm 1 mps 631 mmHg 55%
    08:00 +19°C° 0 mm 1 mps 632 mmHg 49%
    09:00 +21°C° 0 mm 1 mps 632 mmHg 45%
    10:00 +21°C° 0 mm 2 mps 633 mmHg 40%
    11:00 +24°C° 0 mm 2 mps 633 mmHg 35%
    12:00 +24°C° 0 mm 2 mps 633 mmHg 34%
    13:00 +25°C° 0 mm 2 mps 633 mmHg 32%
    14:00 +25°C° 0 mm 3 mps 633 mmHg 31%
    15:00 +25°C° 0 mm 2 mps 633 mmHg 32%
    16:00 +24°C° 0 mm 2 mps 632 mmHg 33%
    17:00 +24°C° 0 mm 2 mps 632 mmHg 34%
    18:00 +21°C° 0 mm 2 mps 631 mmHg 39%
    19:00 +20°C° 0 mm 1 mps 630 mmHg 45%
    20:00 +16°C° 0 mm 1 mps 630 mmHg 50%
    21:00 +15°C° 0 mm 1 mps 630 mmHg 52%
    22:00 +14°C° 0 mm 2 mps 630 mmHg 54%
    23:00 +14°C° 0 mm 2 mps 630 mmHg 57%

    Day after tomorrow, 31 July, Monday

    Time Temperature Precipitation Wind Pressure Humidity
    00:00 +13°C° 0 mm 2 mps 630 mmHg 59%
    01:00 +12°C° 0 mm 2 mps 629 mmHg 62%
    02:00 +12°C° 0 mm 1 mps 629 mmHg 65%
    03:00 +10°C° 0 mm 2 mps 629 mmHg 68%
    04:00 +10°C° 0 mm 2 mps 629 mmHg 70%
    05:00 +10°C° 0 mm 2 mps 629 mmHg 72%
    06:00 +13°C° 0 mm 2 mps 630 mmHg 67%
    07:00 +15°C° 0 mm 2 mps 630 mmHg 62%
    08:00 +17°C° 0 mm 2 mps 631 mmHg 57%
    09:00 +18°C° 0 mm 2 mps 632 mmHg 50%
    10:00 +20°C° 0 mm 3 mps 632 mmHg 44%
    11:00 +22°C° 0 mm 3 mps 633 mmHg 37%
    12:00 +22°C° 0 mm 3 mps 633 mmHg 35%
    13:00 +23°C° 0 mm 4 mps 633 mmHg 32%
    14:00 +25°C° 0 mm 4 mps 633 mmHg 30%
    15:00 +25°C° 0 mm 4 mps 633 mmHg 31%
    16:00 +23°C° 0 mm 4 mps 632 mmHg 31%
    17:00 +23°C° 0 mm 4 mps 632 mmHg 32%
    18:00 +20°C° 0 mm 3 mps 632 mmHg 39%
    19:00 +18°C° 0 mm 3 mps 631 mmHg 45%
    20:00 +15°C° 0 mm 2 mps 630 mmHg 52%
    21:00 +14°C° 0 mm 2 mps 630 mmHg 54%
    22:00 +13°C° 0 mm 2 mps 630 mmHg 57%
    23:00 +12°C° 0 mm 2 mps 630 mmHg 59%

    1 August, Tuesday

    Time Temperature Precipitation Wind Pressure Humidity
    00:00 +12°C° 0 mm 2 mps 630 mmHg 62%
    01:00 +10°C° 0 mm 2 mps 630 mmHg 64%
    02:00 +10°C° 0 mm 2 mps 630 mmHg 67%
    03:00 +10°C° 0 mm 2 mps 629 mmHg 68%
    04:00 +9°C° 0 mm 3 mps 629 mmHg 70%
    05:00 +9°C° 0 mm 3 mps 629 mmHg 72%
    06:00 +11°C° 0 mm 3 mps 630 mmHg 64%
    07:00 +13°C° 0 mm 3 mps 631 mmHg 57%
    08:00 +16°C° 0 mm 3 mps 632 mmHg 49%
    09:00 +18°C° 0 mm 4 mps 633 mmHg 44%
    10:00 +19°C° 0 mm 4 mps 633 mmHg 39%
    11:00 +21°C° 0 mm 4 mps 634 mmHg 34%
    12:00 +22°C° 0 mm 5 mps 634 mmHg 33%
    13:00 +22°C° 0 mm 5 mps 634 mmHg 32%
    14:00 +23°C° 0 mm 5 mps 634 mmHg 31%
    15:00 +23°C° 0 mm 5 mps 634 mmHg 32%
    16:00 +23°C° 0 mm 5 mps 633 mmHg 34%
    17:00 +23°C° 0 mm 5 mps 633 mmHg 35%
    18:00 +21°C° 0 mm 5 mps 633 mmHg 41%
    19:00 +19°C° 0 mm 4 mps 632 mmHg 47%
    20:00 +17°C° 0 mm 3 mps 631 mmHg 53%
    21:00 +14°C° 0 mm 3 mps 631 mmHg 58%
    22:00 +13°C° 0 mm 3 mps 631 mmHg 63%
    23:00 +13°C° 0 mm 2 mps 631 mmHg 68%

    2 August, Wednesday

    Time Temperature Precipitation Wind Pressure Humidity
    00:00 +12°C° 0 mm 2 mps 630 mmHg 71%
    01:00 +11°C° 0 mm 3 mps 630 mmHg 73%
    02:00 +10°C° 0 mm 3 mps 629 mmHg 76%
    03:00 +10°C° 0 mm 3 mps 629 mmHg 77%
    04:00 +10°C° 0 mm 3 mps 629 mmHg 77%
    05:00 +9°C° 0 mm 3 mps 629 mmHg 78%
    06:00 +11°C° 0 mm 3 mps 630 mmHg 69%
    07:00 +14°C° 0 mm 3 mps 631 mmHg 59%
    08:00 +17°C° 0 mm 4 mps 631 mmHg 50%
    09:00 +18°C° 0 mm 4 mps 632 mmHg 43%
    10:00 +20°C° 0 mm 4 mps 632 mmHg 37%
    11:00 +21°C° 0 mm 5 mps 633 mmHg 30%
    12:00 +22°C° 0 mm 5 mps 633 mmHg 30%
    13:00 +23°C° 0 mm 5 mps 633 mmHg 29%
    14:00 +25°C° 0 mm 5 mps 633 mmHg 28%
    15:00 +25°C° 0 mm 5 mps 632 mmHg 30%
    16:00 +25°C° 0 mm 5 mps 632 mmHg 31%
    17:00 +25°C° 0 mm 5 mps 632 mmHg 33%
    18:00 +21°C° 0 mm 4 mps 631 mmHg 40%
    19:00 +19°C° 0 mm 3 mps 630 mmHg 47%
    20:00 +16°C° 0 mm 2 mps 630 mmHg 54%
    21:00 +15°C° 0 mm 2 mps 629 mmHg 57%
    22:00 +14°C° 0 mm 2 mps 629 mmHg 60%
    23:00 +13°C° 0 mm 2 mps 629 mmHg 63%

    3 August, Thursday

    Time Temperature Precipitation Wind Pressure Humidity
    00:00 +13°C° 0 mm 2 mps 629 mmHg 66%
    01:00 +13°C° 0 mm 2 mps 629 mmHg 68%
    02:00 +12°C° 0 mm 2 mps 628 mmHg 70%
    03:00 +12°C° 0 mm 2 mps 628 mmHg 71%
    04:00 +11°C° 0 mm 3 mps 628 mmHg 72%
    05:00 +10°C° 0 mm 3 mps 628 mmHg 73%
    06:00 +13°C° 0 mm 3 mps 628 mmHg 64%
    07:00 +16°C° 0 mm 3 mps 629 mmHg 55%
    08:00 +18°C° 0 mm 3 mps 630 mmHg 46%
    09:00 +19°C° 0 mm 4 mps 630 mmHg 42%
    10:00 +21°C° 0 mm 4 mps 631 mmHg 38%
    11:00 +22°C° 0 mm 4 mps 631 mmHg 35%
    12:00 +23°C° 0 mm 4 mps 631 mmHg 33%
    13:00 +25°C° 0 mm 4 mps 631 mmHg 32%
    14:00 +26°C° 0 mm 5 mps 631 mmHg 31%
    15:00 +26°C° 0 mm 5 mps 631 mmHg 32%
    16:00 +26°C° 0 mm 5 mps 630 mmHg 34%
    17:00 +25°C° 0 mm 5 mps 630 mmHg 35%
    18:00 +22°C° 0 mm 4 mps 629 mmHg 42%
    19:00 +20°C° 0 mm 3 mps 628 mmHg 49%
    20:00 +18°C° 0 mm 3 mps 628 mmHg 55%
    21:00 +17°C° 0 mm 2 mps 628 mmHg 58%
    22:00 +16°C° 0 mm 2 mps 627 mmHg 61%
    23:00 +15°C° 0 mm 2 mps 627 mmHg 64%
    Show more